[[{"header":{"parameterUnit":"m.s-1","parameterCategory":1,"la1":30.2991,"la2":30.254,"lo1":-89.0895,"lo2":-89.0444,"dy":0.0017,"dx":0.0017,"nx":28,"ny":28,"refTime":"2025-07-03T03:00:00:Z","depth":0,"parameterNumber":2,"parameterNumberName":"U-component_of_WINDS"},"data":[0,0,0,0,0,0,0,0,0,0,0,0,0,0,0,0,0,0,0,0,0,0,0,0,0,0,0,0,0,0,0,0,0,0,0,0,0,0,0,0,0,0,0,0,0,0,0,0,0,0,0,0,0,0,0,0,0,0,1.0163,1.0162,0,1.0089,1.0089,1.0088,1.0016,1.0015,1.0014,1.0013,0.9937,0.9936,0.9935,0,0,0,0,0,0,0,0,0,0,0,0,0,1.0239,1.0238,1.0163,1.0162,1.0161,1.009,1.0089,1.0088,1.0016,1.0015,1.0014,1.0013,0.9937,0.9936,0.9935,0,0,0,0,0,0,0,0,0,0,0,0,0,1.019,1.0237,1.0163,1.0117,1.0112,1.009,1.0089,1.0087,1.0016,1.0015,1.0013,1.0012,0.9938,0.9936,0.9935,0.9952,0,0,0.9929,0.9928,0,0,0,0,0,0,0,0,1.0193,1.0187,1.0124,1.012,1.0114,1.006,1.0087,1.0042,1.0017,1.0053,1.0013,1.0011,0.9979,0.9974,0.9963,0.9948,0.9945,0.9929,0.9928,0.9927,0.9927,0,0,0,0,0,0,0,1.0196,1.019,1.0134,1.0123,1.0117,1.0099,1.009,1.0079,1.0025,1.0049,1.0044,1.0036,0.9976,0.9965,0.9961,0.9944,0.9929,0.9928,0.9927,0.9926,0.9939,0.9941,0,0,0,0,0,0,1.0207,1.0193,1.0136,1.0131,1.0151,1.0099,1.0089,1.0079,1.0025,1.0015,1.0038,1.0033,0.9969,0.9963,0.9958,0.9975,0.9927,0.9926,0.9925,0.9938,0.994,0.9941,0,0,0,0,0,0,1.0209,1.0202,1.0139,1.0161,1.0151,1.0099,1.0088,1.0078,1.0067,1.0016,1.0006,1.0036,0.9967,0.996,0.9954,0.9971,0.9925,0.9923,0.9936,0.9939,0.9941,1.0009,0,0,0,0,0,0,1.0211,1.0203,1.021,1.0161,1.015,1.0137,1.0089,1.0078,1.0065,1.0058,1.0012,1.0003,0.9966,0.9957,0.9952,0.9968,0.9922,0.9935,0.9937,0.994,1.0005,1.0013,1.002,0,0,0,0,0,1.0214,1.0232,1.0211,1.0204,1.0158,1.0138,1.0132,1.0089,1.0066,1.0072,1.0039,1.0004,0.997,0.9957,0.9951,0.9967,0.9933,0.9937,0.994,1.0002,1.0012,1.002,0,0,0,0,0,0,1.0284,1.0225,1.0201,1.0203,1.0176,1.0126,1.0132,1.0101,1.008,1.0074,1.0022,1.0012,1.0012,0.9988,0.9975,0.998,0.9947,0.9949,0.9996,1.0005,1.0013,1.0018,0.9921,0,0,0,0,0,1.03,1.0289,1.0238,1.0245,1.0233,1.0185,1.0175,1.0145,1.0114,1.0102,1.0068,1.004,1.0023,1.0012,0.9994,1.0001,0.999,1.0009,1.0016,1.0023,1.0025,1.0027,1.0035,0.9952,0.9952,0.9952,0,0,1.0332,1.0298,1.0295,1.0258,1.0234,1.0224,1.0176,1.0167,1.0159,1.0101,1.0093,1.0067,1.0032,1.0032,1.0031,1.0013,1.0046,1.0027,1.0032,1.0031,1.0031,1.0039,1.0047,0.9954,0.9953,0.9953,0,0,1.0386,1.0359,1.0363,1.0339,1.0302,1.027,1.0271,1.0225,1.0206,1.0198,1.0153,1.0143,1.0114,1.0091,1.0075,1.012,1.0087,1.0115,1.0155,1.0157,1.0164,1.017,1.0186,1.0192,1.0117,1.0118,1.0118,0,1.043,1.0414,1.0368,1.0362,1.0347,1.0294,1.0297,1.0276,1.0235,1.0226,1.0206,1.0169,1.0141,1.0136,1.0147,1.0136,1.0135,1.012,1.0167,1.0172,1.0176,1.0191,1.0197,1.0121,1.0121,1.012,1.012,0,1.0471,1.046,1.0467,1.0429,1.0415,1.0414,1.0367,1.0358,1.0329,1.0299,1.029,1.0255,1.0228,1.0224,1.0196,1.0215,1.0205,1.0177,1.0142,1.0189,1.0202,1.0207,1.0127,1.0125,1.0124,1.0123,0,0,1.0567,1.0504,1.0507,1.049,1.0445,1.0436,1.0431,1.0405,1.0399,1.0372,1.0367,1.0344,1.0318,1.03,1.0268,1.027,1.0308,1.0241,1.024,1.0255,1.0326,1.0348,1.0356,1.0285,1.0286,1.0287,1.033,0,1.0614,1.0604,1.0562,1.0564,1.0553,1.0502,1.0498,1.0471,1.0442,1.0429,1.0397,1.0381,1.0348,1.0337,1.0337,1.0303,1.0321,1.0299,1.028,1.028,1.0291,1.0362,1.0385,1.0428,1.0334,1.0335,1.0336,0,1.0667,1.0644,1.0646,1.0601,1.0595,1.0593,1.0565,1.0553,1.052,1.0499,1.0479,1.0443,1.0435,1.0403,1.0391,1.0377,1.0366,1.0349,1.0349,1.0346,1.0311,1.0362,1.044,1.0447,1.0343,1.0343,1.0342,0,1.0738,1.0707,1.0704,1.069,1.0638,1.0638,1.0616,1.0581,1.0569,1.0544,1.0535,1.0511,1.0497,1.0478,1.0437,1.0417,1.043,1.0393,1.0412,1.0413,1.0417,1.0418,1.0496,1.041,1.041,1.041,1.041,0,1.0795,1.0798,1.0735,1.0734,1.0735,1.0686,1.0689,1.0662,1.0632,1.0624,1.0577,1.057,1.0515,1.0502,1.0468,1.0464,1.0458,1.0441,1.0432,1.0445,1.0448,1.0438,1.0434,1.0411,1.0411,1.0411,1.041,0,1.0875,1.0833,1.0826,1.0777,1.0765,1.0768,1.0726,1.0722,1.0691,1.0681,1.0675,1.0626,1.0608,1.0564,1.0534,1.0511,1.0515,1.0499,1.0527,1.0522,1.0543,1.0542,1.0618,1.0625,1.0535,1.0536,1.0536,0,1.0914,1.0915,1.0866,1.0858,1.0838,1.0824,1.0811,1.0763,1.0751,1.0713,1.0713,1.0691,1.0671,1.0644,1.0605,1.0582,1.0565,1.0593,1.0561,1.0575,1.0566,1.0567,1.0567,1.0601,1.0602,1.0603,1.0604,0,1.0989,1.0968,1.095,1.0926,1.0911,1.0889,1.0865,1.086,1.0806,1.0794,1.0775,1.076,1.0729,1.0708,1.0678,1.0655,1.0621,1.0614,1.0617,1.0631,1.0647,1.0639,1.0547,1.0613,1.0612,1.0611,1.0611,1.061,1.105,1.1048,1.1014,1.0996,1.0972,1.095,1.0944,1.0912,1.0895,1.0867,1.0839,1.0823,1.0789,1.0746,1.0725,1.0711,1.0694,1.0698,1.0699,1.0701,1.0707,1.0649,1.0706,1.0705,1.0705,1.0705,1.0704,0,1.1122,1.1097,1.1081,1.1049,1.1034,1.1003,1.0974,1.0964,1.0951,1.0922,1.0903,1.0881,1.086,1.082,1.0795,1.0792,1.0775,1.0787,1.0787,1.0782,1.0724,1.0724,1.0801,1.0801,1.0801,1.0801,1.0801,1.0801,1.1158,1.1154,1.1129,1.1113,1.1087,1.1072,1.1058,1.1037,1.1014,1.0992,1.0974,1.0948,1.0914,1.0887,1.0866,1.0854,1.0848,1.0865,1.0848,1.0795,1.0786,1.0778,1.0777,1.0863,1.0863,1.0907,1.0907,1.0908]},{"header":{"parameterUnit":"m.s-1","parameterCategory":1,"la1":30.2991,"la2":30.254,"lo1":-89.0895,"lo2":-89.0444,"dy":0.0017,"dx":0.0017,"nx":28,"ny":28,"refTime":"2025-07-03T03:00:00:Z","depth":0,"parameterNumber":3,"parameterNumberName":"V-component_of_WINDS"},"data":[0,0,0,0,0,0,0,0,0,0,0,0,0,0,0,0,0,0,0,0,0,0,0,0,0,0,0,0,0,0,0,0,0,0,0,0,0,0,0,0,0,0,0,0,0,0,0,0,0,0,0,0,0,0,0,0,0,0,-3.0224,-3.0226,0,-3.0349,-3.0351,-3.0352,-3.0331,-3.0329,-3.0327,-3.0325,-3.045,-3.0456,-3.0461,0,0,0,0,0,0,0,0,0,0,0,0,0,-2.9966,-2.9971,-3.0224,-3.0226,-3.0227,-3.0349,-3.0351,-3.0353,-3.0332,-3.0329,-3.0327,-3.0324,-3.0449,-3.0455,-3.0461,0,0,0,0,0,0,0,0,0,0,0,0,0,-3.0083,-2.9972,-3.0224,-3.0232,-3.0234,-3.0349,-3.0351,-3.0353,-3.0332,-3.0329,-3.0326,-3.0323,-3.0447,-3.0454,-3.0462,-3.0577,0,0,-3.0487,-3.049,0,0,0,0,0,0,0,0,-3.0076,-3.0093,-3.0229,-3.0231,-3.0234,-3.0322,-3.0306,-3.0428,-3.0333,-3.0295,-3.0325,-3.0321,-3.041,-3.0421,-3.0451,-3.0583,-3.0588,-3.0488,-3.0492,-3.0496,-3.0498,0,0,0,0,0,0,0,-3.0068,-3.0087,-3.0274,-3.0231,-3.0234,-3.0228,-3.0242,-3.0329,-3.0369,-3.0298,-3.0297,-3.0312,-3.0411,-3.0444,-3.0454,-3.059,-3.0487,-3.0494,-3.0499,-3.0503,-3.0822,-3.0826,0,0,0,0,0,0,-3.0058,-3.008,-3.027,-3.0277,-3.0146,-3.0236,-3.025,-3.0297,-3.0368,-3.0376,-3.0315,-3.0311,-3.0432,-3.0445,-3.0458,-3.0598,-3.0496,-3.0503,-3.0508,-3.0819,-3.0823,-3.0827,0,0,0,0,0,0,-3.0053,-3.0075,-3.0265,-3.0179,-3.0202,-3.0244,-3.0296,-3.0301,-3.0334,-3.0381,-3.0387,-3.0341,-3.043,-3.0447,-3.0548,-3.0602,-3.0507,-3.0514,-3.0814,-3.082,-3.0825,-3.0878,0,0,0,0,0,0,-3.0045,-3.0073,-3.0118,-3.018,-3.0207,-3.0353,-3.0299,-3.0306,-3.0348,-3.0344,-3.0407,-3.0415,-3.0428,-3.0536,-3.0556,-3.0611,-3.0521,-3.081,-3.0817,-3.0823,-3.0871,-3.0884,-3.0895,0,0,0,0,0,-3.0036,-3.0126,-3.012,-3.0143,-3.0263,-3.0356,-3.0371,-3.0386,-3.0352,-3.0397,-3.0427,-3.0413,-3.0593,-3.0547,-3.0569,-3.0627,-3.0806,-3.0815,-3.0823,-3.0866,-3.0882,-3.0895,0,0,0,0,0,0,-3.0068,-3.0135,-3.0128,-3.0241,-3.0293,-3.0352,-3.0409,-3.0402,-3.0464,-3.0457,-3.0472,-3.0487,-3.0589,-3.0618,-3.0565,-3.0743,-3.0695,-3.0708,-3.072,-3.0735,-3.0747,-3.0738,-3.0527,0,0,0,0,0,-3.0089,-3.0159,-3.0213,-3.0308,-3.0334,-3.0367,-3.0408,-3.0415,-3.0469,-3.049,-3.0528,-3.058,-3.0649,-3.0694,-3.0759,-3.0875,-3.0889,-3.0927,-3.0939,-3.0948,-3.096,-3.1024,-3.1042,-3.0854,-3.0854,-3.0854,0,0,-3.0131,-3.0176,-3.0219,-3.0315,-3.0356,-3.0429,-3.0386,-3.0463,-3.0517,-3.0502,-3.06,-3.063,-3.0689,-3.0798,-3.0848,-3.0826,-3.1015,-3.0959,-3.0966,-3.0972,-3.1035,-3.1052,-3.1068,-3.086,-3.0859,-3.0858,0,0,-3.0246,-3.0287,-3.0371,-3.0413,-3.0477,-3.0498,-3.0518,-3.0579,-3.0598,-3.0697,-3.0688,-3.0751,-3.0869,-3.0912,-3.0949,-3.1082,-3.1071,-3.1103,-3.1166,-3.1229,-3.1244,-3.1257,-3.1305,-3.1322,-3.1114,-3.1114,-3.1114,0,-3.0291,-3.04,-3.0415,-3.0495,-3.0537,-3.0528,-3.0613,-3.0653,-3.0734,-3.0764,-3.0737,-3.0886,-3.0925,-3.1045,-3.1078,-3.1108,-3.1131,-3.1096,-3.124,-3.1254,-3.1266,-3.1313,-3.1331,-3.1117,-3.1117,-3.1117,-3.1116,0,-3.0452,-3.0528,-3.0588,-3.0668,-3.0718,-3.08,-3.0827,-3.0875,-3.0878,-3.0902,-3.1003,-3.105,-3.1126,-3.1155,-3.1157,-3.1276,-3.126,-3.1237,-3.1189,-3.1288,-3.1331,-3.1349,-3.1122,-3.1121,-3.112,-3.1119,0,0,-3.059,-3.0679,-3.07,-3.0737,-3.0807,-3.0866,-3.0947,-3.1022,-3.1064,-3.112,-3.1189,-3.1289,-3.1269,-3.1312,-3.1319,-3.1375,-3.1478,-3.1345,-3.1347,-3.1369,-3.1612,-3.163,-3.165,-3.1471,-3.1475,-3.1477,-3.1608,0,-3.0712,-3.0858,-3.0874,-3.1004,-3.1074,-3.1067,-3.1138,-3.1189,-3.1214,-3.1277,-3.1304,-3.1376,-3.1343,-3.1369,-3.1423,-3.1454,-3.1527,-3.1445,-3.1536,-3.1539,-3.1522,-3.1673,-3.1691,-3.1812,-3.1625,-3.1627,-3.163,0,-3.0874,-3.0937,-3.1074,-3.1135,-3.1165,-3.1229,-3.13,-3.136,-3.1417,-3.1432,-3.148,-3.1481,-3.1565,-3.1514,-3.1631,-3.1575,-3.1613,-3.1634,-3.1639,-3.1648,-3.1591,-3.1687,-3.185,-3.1869,-3.1656,-3.1654,-3.1652,0,-3.0962,-3.108,-3.1178,-3.121,-3.1283,-3.1329,-3.1361,-3.1415,-3.146,-3.1521,-3.155,-3.162,-3.1659,-3.1713,-3.1733,-3.1694,-3.1849,-3.1799,-3.1864,-3.1863,-3.1897,-3.1895,-3.207,-3.192,-3.192,-3.192,-3.1919,0,-3.1097,-3.1181,-3.1219,-3.1279,-3.1374,-3.1391,-3.1484,-3.1515,-3.1563,-3.1629,-3.1626,-3.1688,-3.171,-3.1776,-3.1792,-3.1886,-3.1903,-3.1917,-3.1921,-3.1918,-3.1917,-3.1944,-3.1936,-3.1924,-3.1923,-3.1922,-3.1922,0,-3.1211,-3.124,-3.1346,-3.1408,-3.1425,-3.1492,-3.1545,-3.1603,-3.1627,-3.1711,-3.1731,-3.177,-3.1847,-3.1872,-3.1965,-3.1976,-3.2086,-3.2082,-3.2068,-3.2068,-3.2132,-3.2126,-3.2331,-3.2359,-3.219,-3.2192,-3.2193,0,-3.1296,-3.1361,-3.143,-3.1475,-3.1509,-3.1581,-3.1627,-3.1647,-3.1695,-3.1766,-3.1815,-3.1892,-3.1954,-3.2078,-3.2114,-3.2185,-3.2182,-3.2249,-3.2193,-3.2189,-3.2185,-3.2181,-3.2188,-3.226,-3.2262,-3.2263,-3.2264,0,-3.1443,-3.1455,-3.1521,-3.1594,-3.1649,-3.1707,-3.1763,-3.1799,-3.1827,-3.1881,-3.1961,-3.201,-3.2105,-3.2181,-3.2254,-3.2287,-3.2281,-3.2282,-3.2301,-3.2299,-3.2289,-3.2296,-3.2097,-3.2277,-3.2276,-3.2275,-3.2274,-3.2274,-3.1546,-3.1604,-3.1662,-3.1737,-3.1782,-3.1834,-3.1892,-3.1925,-3.1992,-3.2072,-3.208,-3.2166,-3.2222,-3.232,-3.2356,-3.2423,-3.2404,-3.2431,-3.2438,-3.2445,-3.2451,-3.2278,-3.2436,-3.2436,-3.2436,-3.2436,-3.2435,0,-3.1694,-3.1732,-3.18,-3.188,-3.1939,-3.1929,-3.199,-3.204,-3.2116,-3.217,-3.2232,-3.2324,-3.2398,-3.244,-3.2515,-3.2561,-3.256,-3.258,-3.2577,-3.2585,-3.2463,-3.2439,-3.2579,-3.2579,-3.2579,-3.2579,-3.2579,-3.2579,-3.1778,-3.1876,-3.1895,-3.2015,-3.2052,-3.2137,-3.2173,-3.2222,-3.2265,-3.2368,-3.2431,-3.2458,-3.2507,-3.2586,-3.2653,-3.2664,-3.2692,-3.2714,-3.2722,-3.2608,-3.2593,-3.2579,-3.2557,-3.2719,-3.272,-3.2839,-3.284,-3.2841]}]]